Tracking 22124 objects as of 25-Jan-2021
HD Live streaming from Space Station
objects crossing your sky now

STARLINK-1379

Track STARLINK-1379 now!
10-day predictions
STARLINK-1379 is classified as:


NORAD ID: 45549
Int'l Code: 2020-025U
Perigee: 553.5 km
Apogee: 555.2 km
Inclination: 53.0 °
Period: 95.6 minutes
Semi major axis: 6925 km
RCS: Unknown
Launch date: April 22, 2020
Source: United States (US)
Launch site: AIR FORCE EASTERN TEST RANGE (AFETR)
aabbcc
Your satellite tracking list
Your tracking list is empty




NASA's NSSDC Master Catalog

Two Line Element Set (TLE):
1 45549U 20025U   21024.83164393  .00008957  00000-0  61955-3 0  9990
2 45549  53.0329 220.7010 0001270  93.4141 266.6993 15.06394293 43252
Source of the keplerian elements: AFSPC